RH
9 15 18 22 27 44 73 80 85 87 85 85 90 98 100 100 100 100 100 100 99 97 85 70 76 68 96 99 95 79 84 80 83 92 65 82 80 82 86 79 79 91 94
10 15 18 26 28 43 81 85 92 89 91 98 100 100 96 100 100 100 100 100 100 99 78 92 72 75 94 100 94 89 92 87 79 68 77 77 84 82 83 83 71 73 90
10 15 20 27 27 56 85 90 94 92 96 98 100 98 95 95 100 99 100 100 100 100 67 90 44 62 82 100 98 99 93 88 81 70 70 72 66 83 91 89 81 69 70
11 16 22 28 28 58 88 93 96 97 97 97 96 98 99 100 100 100 100 100 100 98 98 97 80 81 97 99 100 97 96 89 82 73 69 71 71 78 88 94 100 93 78
12 14 23 27 27 46 90 94 97 98 98 96 96 97 97 98 99 98 100 100 89 99 100 99 70 85 100 98 99 100 94 91 86 78 75 75 75 87 99 89 89 98 98
14 14 22 27 28 41 86 93 94 98 94 96 96 97 96 98 98 98 99 98 98 98 100 80 78 86 99 95 99 99 87 89 90 84 78 76 74 72 70 58 68 99 100
18 15 20 28 29 36 66 91 92 95 93 95 96 95 95 96 98 98 91 98 99 97 88 79 87 97 100 99 99 98 88 90 78 77 79 77 72 69 65 61 62 57 60
19 18 18 29 28 33 50 90 94 96 95 95 95 96 94 96 97 100 100 99 99 94 63 74 77 100 96 88 100 96 97 97 97 90 82 75 65 61 65 67 67 69 66
22 21 19 32 28 32 52 81 86 95 95 96 95 96 93 96 100 98 87 80 87 93 98 97 100 83 91 95 90 100 99 100 98 96 87 77 68 60 61 72 74 79 84
24 21 21 37 34 33 80 93 88 90 95 96 95 95 94 97 100 99 99 100 99 100 100 100 98 100 86 100 100 100 100 99 99 100 93 86 80 74 71 71 72 78 78
25 23 20 34 43 48 79 91 89 86 77 90 96 95 96 99 98 99 99 98 99 100 100 100 99 97 100 100 100 100 97 97 100 98 97 96 89 84 84 82 79 78 73
27 26 21 27 44 51 85 85 82 81 74 77 91 90 97 94 96 97 97 97 99 100 100 100 100 100 100 100 100 100 100 100 99 99 100 100 94 91 89 84 87 84 81
30 32 26 18 39 50 73 82 82 85 78 80 81 91 82 96 94 97 96 97 98 99 100 100 99 100 100 100 100 100 100 100 100 100 100 100 97 96 92 92 92 89 90
31 32 36 26 25 49 47 71 91 95 93 95 82 91 90 96 93 93 97 96 98 98 100 99 99 100 99 100 100 100 100 100 100 100 100 100 100 100 100 99 100 97 97
33 33 35 37 37 41 62 77 78 97 97 99 100 99 99 98 100 100 98 95 97 97 100 100 99 100 99 99 100 100 100 100 100 100 100 100 100 100 100 100 100 99 100
36 34 34 35 47 54 47 61 74 90 95 97 99 100 100 100 97 84 100 81 70 87 97 96 98 97 95 98 100 98 100 100 100 99 100 100 100 100 100 100 100 100 100
40 34 34 32 46 51 59 55 46 49 79 96 91 97 98 100 98 25 35 54 62 62 71 83 93 95 95 94 96 96 97 100 100 100 98 100 100 99 100 100 100 100 100
46 36 34 30 38 52 55 59 62 59 53 56 64 49 45 45 57 25 18 16 32 59 72 79 82 82 92 95 95 96 95 96 96 99 99 99 100 99 100 100 100 100 100
46 35 32 30 35 50 57 65 63 62 61 61 56 46 44 37 30 26 23 23 28 46 75 79 82 82 80 80 83 92 94 96 95 96 96 96 98 96 97 98 99 100 100
38 37 33 32 38 57 61 60 62 63 63 66 78 100 64 42 40 38 36 34 33 34 36 63 83 87 82 80 77 76 72 76 79 83 85 88 95 96 96 97 97 98 99
39 36 61 40 51 69 73 71 73 72 68 66 71 100 100 60 59 53 46 44 41 39 39 42 47 71 83 86 85 82 77 72 71 71 73 77 77 76 80 93 94 95 96
37 38 43 45 59 80 79 75 77 77 77 76 75 84 93 64 61 58 50 49 50 48 44 40 42 50 62 82 88 89 88 80 76 71 71 72 72 74 75 78 78 80 79
38 42 49 55 80 100 98 86 84 84 84 80 77 72 70 68 62 57 57 55 50 49 51 52 47 40 38 48 72 92 93 95 93 82 73 73 74 72 76 77 76 76 77
51 55 58 68 83 94 97 94 91 98 87 80 76 71 62 53 48 46 44 45 45 46 44 45 48 51 50 44 40 48 73 93 100 84 79 75 77 77 77 77 77 79 79
68 71 77 84 97 95 99 94 90 83 79 75 66 54 44 43 48 53 51 47 45 44 46 49 47 40 37 45 49 45 43 95 96 100 82 78 78 82 81 80 81 79 79
81 80 82 85 90 91 91 87 83 78 67 55 44 46 61 60 48 41 44 46 44 39 35 32 28 28 36 47 43 47 52 44 71 100 84 80 86 87 84 86 85 85 85
Wind_Speed
20 19 20 22 24 27 30 32 35 39 40 42 42 42 43 45 44 44 47 49 47 47 47 51 57 70 47 57 58 62 55 51 41 47 47 46 48 44 41 37 35 38 35
19 18 19 22 24 27 29 31 34 37 37 38 39 40 43 46 46 46 48 47 49 55 56 53 56 69 61 56 59 60 58 53 45 44 44 44 46 48 46 42 37 36 39
19 18 20 21 23 26 28 30 31 32 32 33 34 37 40 43 44 45 49 50 50 49 53 51 60 63 46 56 60 59 55 52 47 43 44 43 38 40 45 42 39 38 38
18 17 20 21 23 26 28 29 28 27 28 28 29 33 34 40 44 44 46 50 53 51 50 51 67 67 52 67 62 61 53 50 49 46 41 44 41 37 41 43 40 39 38
17 17 18 20 22 24 26 26 25 25 25 23 24 23 25 25 32 40 45 46 47 51 50 51 71 76 43 66 64 60 57 52 49 47 44 44 44 43 45 40 40 41 40
16 17 18 19 20 23 24 24 24 24 23 21 23 20 21 17 16 23 32 41 45 45 48 54 67 57 49 73 64 62 67 58 50 51 50 50 48 46 40 38 37 40 37
16 17 17 19 19 22 24 23 24 24 25 25 24 23 28 28 30 25 42 42 41 46 49 64 66 50 68 71 67 68 60 57 53 55 55 54 50 47 40 41 39 37 37
15 19 17 17 18 21 23 23 24 27 26 26 28 26 34 36 36 7 22 32 33 40 61 61 48 50 68 61 62 57 55 57 57 56 58 56 51 44 42 41 37 33 31
15 18 17 17 18 20 23 25 25 28 27 27 29 33 36 42 44 12 16 15 25 41 39 59 55 48 59 58 55 58 56 59 57 54 54 47 44 42 39 42 44 42 40
13 16 17 16 17 18 20 25 26 27 28 28 29 34 36 43 47 25 5 6 6 29 41 46 41 52 55 64 60 58 56 57 58 53 48 45 41 38 39 40 41 44 43
11 13 16 14 16 16 19 23 25 26 28 30 31 36 41 48 45 40 25 16 23 23 29 29 29 25 38 52 53 55 58 52 52 55 56 48 43 39 38 37 36 38 40
9 11 14 14 14 15 16 21 25 29 31 33 35 36 44 43 45 39 37 29 27 28 17 19 20 26 22 24 30 34 37 37 48 49 49 51 47 46 44 41 39 38 36
6 9 12 12 13 15 14 19 27 32 34 38 38 44 46 43 41 41 35 35 32 32 27 23 15 15 19 18 22 31 33 28 33 39 46 54 52 50 48 44 41 39 37
6 7 8 9 10 12 16 16 25 31 34 38 40 41 42 43 41 39 34 33 31 31 30 27 22 16 15 19 21 20 22 24 29 28 35 41 47 47 49 49 48 44 42
5 5 6 7 7 7 11 17 21 24 26 29 32 32 35 38 34 31 34 29 28 27 25 29 28 27 26 23 20 17 21 21 22 26 28 29 30 33 39 44 47 48 50
5 3 5 5 5 5 5 7 11 16 21 25 25 29 30 27 28 28 28 29 26 23 24 31 34 33 31 28 27 23 20 15 16 16 18 23 24 27 29 29 33 37 42
6 3 2 4 4 4 5 6 10 11 15 19 25 26 27 28 29 27 27 28 28 26 33 34 34 32 29 27 25 24 24 20 15 13 10 11 12 15 19 22 26 29 30
5 3 2 3 2 3 5 6 8 11 15 18 21 24 26 28 29 30 28 23 27 32 33 33 32 30 29 26 24 24 21 19 17 15 13 9 3 3 4 10 11 17 23
6 3 3 3 2 3 4 6 7 10 13 16 19 22 25 26 27 29 31 34 33 33 32 31 29 28 26 24 23 22 22 21 20 17 14 12 9 5 3 2 5 6 13
4 2 2 2 2 4 4 4 5 8 11 15 20 24 22 23 28 29 29 29 29 28 27 27 25 25 25 24 23 21 21 21 20 19 19 15 13 10 8 7 6 7 9
3 1 1 0 2 4 4 4 4 7 9 12 15 18 17 21 23 24 25 25 25 25 24 23 22 21 21 21 22 22 21 21 20 19 18 16 15 14 12 11 11 10 11
2 1 2 1 3 4 3 3 3 5 7 10 12 13 15 17 19 20 21 22 22 22 21 20 20 20 19 18 17 19 21 21 22 20 19 17 15 13 12 12 11 11 12
1 1 2 3 6 5 3 2 2 4 6 8 10 12 14 15 16 17 17 17 18 18 18 19 18 18 17 15 13 12 15 19 22 22 19 18 16 14 14 13 13 13 13
3 4 4 5 6 5 2 2 2 3 5 7 8 10 12 13 14 14 15 15 15 16 16 17 17 17 16 15 14 13 12 14 16 20 19 18 17 16 15 15 14 14 15
5 5 6 7 7 5 4 1 1 3 5 6 7 8 9 11 13 15 16 17 18 19 19 19 19 19 18 18 17 15 13 15 10 17 19 16 16 15 15 15 16 15 15
5 6 5 5 5 4 3 1 1 2 3 4 5 7 9 11 13 15 17 17 18 18 19 21 23 23 21 20 18 16 16 15 10 14 19 15 14 13 14 14 15 15 14
Wind_Direction
318 313 312 310 311 311 311 311 308 304 301 295 289 283 274 268 263 260 254 250 248 250 249 244 245 240 245 201 204 213 209 202 202 209 219 213 211 214 220 221 216 214 215
319 317 315 312 315 315 316 313 312 306 302 298 290 285 278 268 260 252 250 246 248 246 243 238 241 236 236 200 196 203 202 200 198 209 211 213 212 218 223 224 222 219 218
323 319 315 318 319 321 319 319 316 314 311 303 294 286 282 276 267 259 251 246 243 242 245 245 243 235 237 201 194 198 200 199 199 209 205 210 211 214 217 225 226 222 219
328 321 317 324 326 326 325 325 325 327 316 308 305 288 279 274 265 260 252 247 246 239 232 232 232 235 247 195 192 194 191 190 195 206 207 206 207 210 215 214 215 223 221
331 324 322 328 327 328 329 332 332 338 321 320 318 308 293 277 264 261 249 243 242 236 234 232 227 228 239 192 190 188 192 189 192 199 201 201 202 201 204 211 220 216 220
336 330 328 329 332 333 334 338 345 347 335 336 342 332 333 334 328 272 250 242 238 237 236 231 224 235 242 202 197 199 202 195 192 195 201 203 203 204 205 208 211 213 210
341 337 333 332 336 339 341 345 351 356 346 349 355 347 356 360 343 263 234 227 228 233 230 222 225 239 192 196 199 202 207 210 214 212 210 208 207 207 207 207 211 216 217
347 345 338 336 340 342 346 351 351 1 356 356 2 357 1 1 356 290 203 218 224 220 213 234 238 213 191 199 201 204 211 212 207 213 218 219 217 216 220 225 227 231 230
351 342 341 343 345 345 352 355 358 356 359 0 7 9 6 9 9 118 174 195 242 239 234 220 188 195 201 203 209 203 202 207 206 208 214 222 223 225 222 219 215 214 216
335 343 342 344 351 349 360 360 1 1 360 8 10 18 17 12 26 63 98 126 130 152 133 165 181 184 200 200 202 200 197 201 207 206 211 218 222 227 227 228 228 222 222
323 344 345 349 351 356 5 7 5 5 9 15 15 23 27 28 38 41 57 68 76 92 118 122 135 142 181 193 195 201 205 208 206 207 209 210 215 220 222 222 228 230 226
317 342 354 349 357 0 7 9 13 13 17 22 19 24 34 33 37 41 46 50 65 98 89 99 136 157 152 171 197 201 210 209 214 212 208 208 209 214 218 221 226 228 230
314 340 351 359 0 10 6 17 22 21 20 24 25 24 28 29 32 40 42 49 57 74 86 96 146 173 175 175 191 205 210 209 217 218 214 215 214 217 219 225 225 227 233
297 336 353 3 8 13 20 25 32 25 21 23 26 31 24 33 27 24 33 45 56 64 77 83 96 116 152 161 187 199 197 206 212 209 216 222 224 223 225 222 217 219 226
278 327 355 4 25 31 13 20 25 33 27 24 24 33 30 25 27 27 32 38 46 60 71 80 87 90 95 89 113 141 166 177 195 199 200 208 216 224 223 223 223 221 221
245 296 351 17 38 48 30 25 36 26 24 25 28 27 34 37 28 33 37 44 52 59 66 67 67 66 68 64 72 76 87 124 139 170 178 198 193 202 209 210 217 222 231
236 262 348 18 47 62 60 49 30 35 35 32 21 27 28 31 33 38 41 43 52 56 63 60 62 63 63 59 55 62 63 64 78 114 146 154 178 190 196 196 206 216 219
238 257 337 26 65 74 76 64 54 45 39 36 33 29 28 28 31 36 43 52 54 56 57 57 55 55 55 56 51 51 50 51 56 58 78 89 142 186 177 199 212 210 214
234 259 336 21 82 111 98 77 63 54 48 42 40 38 34 33 35 35 36 43 45 46 50 53 53 53 53 53 53 48 50 44 41 46 49 46 45 54 22 300 262 248 233
222 257 322 3 126 138 126 104 71 55 47 43 43 32 26 32 37 38 40 42 44 44 43 46 48 49 49 47 46 43 43 36 36 33 34 35 35 31 14 3 335 311 292
218 249 285 353 160 154 147 109 72 53 42 38 42 42 29 35 38 39 39 39 40 41 41 41 40 40 43 44 43 39 37 35 28 30 25 21 21 23 18 5 349 337 317
235 242 238 210 175 163 151 125 74 50 38 32 29 33 29 33 36 36 38 41 40 39 36 35 34 33 32 29 32 33 28 23 21 25 20 10 11 9 4 359 354 343 332
222 190 168 160 141 137 170 123 83 43 31 23 20 20 24 27 29 33 36 35 34 34 32 30 29 27 23 20 14 10 14 13 8 9 9 4 2 0 357 352 348 341 337
149 144 134 132 138 154 118 71 67 43 19 13 16 20 23 25 27 29 30 30 29 26 22 18 13 12 12 9 5 2 355 355 360 355 359 357 357 354 350 348 345 342 335
134 137 138 142 150 144 155 179 338 357 2 13 17 23 34 43 47 45 42 39 36 32 27 20 13 6 357 350 350 349 341 345 3 348 347 350 351 349 346 345 340 336 333
136 137 144 155 169 178 191 215 33 26 10 20 43 59 60 57 57 51 40 31 26 22 20 18 12 5 356 346 337 331 328 328 342 333 333 340 341 346 347 349 344 336 333